STARLINK-4097, 53265

Orbit data source: Space-Track

STARLINK-4097, 53265 is a payload satellite owned by SpaceX/Seattle (US) in LEO that was launched on Sun, 24 Jul 2022 UTC via an FALCON 9 launch vehicle from the Air Force Eastern Test Range (AFETR). Payload-class satellites include a variety of spacecraft equipped with specific instruments for various scientific and technological missions. These include communications satellites like Starlink; space stations such as the ISS; scientific satellites like the Hubble; Earth observation satellites from companies like Planet Labs, Umbra, and HawkEye 360; GPS; miniature CubeSats for education and research; and military/defense satellites.

Loading next visibility...
Identifier
53265, 2022-086Z
Orbit
LEO
Country
Flag of USUS
Related business
Manufacturer
SpaceX/Seattle
Mission
Operational Commercial Communications
Bus & Motor
STARLINK, Unknown motor
Mass
297 kg wet, ~275 kg dry
Launch date (UTC)
2022-07-24 (4 years ago)
Launch vehicle
FALCON 9
Launch site
Air Force Eastern Test Range (AFETR)
Object type
Payload
Rocket body
Debris
Shape & HBR
Box + 1 Pan, 10.1 m
Radar Cross Section
13.562 m², Large (>1 m²)

Expand to show TLE details & history
Last TLE update: 3 days ago

TLE from 3 days ago
0 STARLINK-4097
1 53265U 22086Z   26170.93275507  .00002166  00000-0  15411-3 0  9993
2 53265  53.1615  95.0230 0001472  91.3129 268.8031 15.08849248216503
Epoch: 2026-06-19T22:23Z
TLE epoch observation values (Epoch: 2026-06-19T22:23:10.038Z)
Latitude
-0.00001°
Longitude
-148.92346°
Altitude
540.628 km
Speed
7.593 km/s
True Right ascension
06h 20m 05s
True Declination
0° 00' 00"
Sunlit
Object was in daylight at epoch
Visualization orbit readout
Latitude
Unknown
Longitude
Unknown
Altitude
Unknown
Speed
Unknown
Apparent Right ascension
Unknown
Apparent Declination
Unknown
Sunlit
N/A
Visualization observer readout
Local Sidereal Time
23:07:44
Azimuth
Unknown
Elevation
Unknown
Doppler factor
Unknown
Orbital elements
Apogee altitude
540.987 km
Perigee altitude
538.951 km
Semi-major axis
6,918.106 km
Eccentricity
0.00015
Inclination
53.1615°
RAAN
95.023°
Arg. of periapsis
91.3129°
True anomaly
268.78624°
Mean anomaly
268.8031°
Eccentric anomaly
268.79467°
Mean motion
3.77192 °/min
Orbital period
95.44 mins
BSTAR
0.00015411
Loading maneuver chart data...
Computing Atmospheric mass density...

Documentation

Showing up to 5 results
|